Stations météo

Publicité
Mahdia, Tunisie (60742): Température de l'air & dewpoint: 14.04.2019 21:00:00 - 20.04.2019 21:00:00 (CET)Mahdia, Tunisie (60742): Vitesse du vent: 14.04.2019 21:00:00 - 20.04.2019 21:00:00 (CET)Mahdia, Tunisie (60742): Direction du vent: 14.04.2019 21:00:00 - 20.04.2019 21:00:00 (CET)Mahdia, Tunisie (60742): reduced air pressure: 14.04.2019 21:00:00 - 20.04.2019 21:00:00 (CET)Mahdia, Tunisie (60742): visibility: 14.04.2019 21:00:00 - 20.04.2019 21:00:00 (CET)Mahdia, Tunisie (60742): Quantités de précipitations: 14.04.2019 21:00:00 - 20.04.2019 21:00:00 (CET)
Date & Time tt [°C] td [°C] ff [km/h] ff [knt] dd ppp [hPa] vv [km] rr [mm]
20.04.2019 21:00:00 - - - - - - - -
20.04.2019 20:00:00 - - - - - - - -
20.04.2019 19:00:00 - - - - - - - -
20.04.2019 18:00:00 - - - - - - - -
20.04.2019 17:00:00 - - - - - - - -
20.04.2019 16:00:00 17,4 14,3 37 20 E 1016,1 - -
20.04.2019 15:00:00 - - - - - - - -
20.04.2019 14:00:00 - - - - - - - -
20.04.2019 13:00:00 17,4 14,5 39 21 E 1018,4 8 -
20.04.2019 12:00:00 - - - - - - - -
20.04.2019 11:00:00 - - - - - - - -
20.04.2019 10:00:00 17,0 14,3 39 21 E 1019,9 8 -
20.04.2019 09:00:00 - - - - - - - -
20.04.2019 08:00:00 - - - - - - - -
20.04.2019 07:00:00 16,2 13,9 41 22 E 1020,0 8 -
20.04.2019 06:00:00 - - - - - - - -
20.04.2019 05:00:00 - - - - - - - -
20.04.2019 04:00:00 16,0 13,7 39 21 E 1020,0 - -
20.04.2019 03:00:00 - - - - - - - -
20.04.2019 02:00:00 - - - - - - - -
20.04.2019 01:00:00 16,1 13,9 41 22 E 1021,5 - -
20.04.2019 00:00:00 - - - - - - - -
19.04.2019 23:00:00 - - - - - - - -
19.04.2019 22:00:00 16,3 14,3 41 22 E 1022,7 - -
19.04.2019 21:00:00 - - - - - - - -
19.04.2019 20:00:00 - - - - - - - -
19.04.2019 19:00:00 16,8 14,6 37 20 E 1022,1 8 -
19.04.2019 18:00:00 - - - - - - - -
19.04.2019 17:00:00 - - - - - - - -
19.04.2019 16:00:00 17,0 14,6 37 20 E 1021,3 8 -
19.04.2019 15:00:00 - - - - - - - -
19.04.2019 14:00:00 - - - - - - - -
19.04.2019 13:00:00 18,0 14,9 29 16 E 1023,0 8 -
19.04.2019 12:00:00 - - - - - - - -
19.04.2019 11:00:00 - - - - - - - -
19.04.2019 10:00:00 17,6 14,9 28 15 E 1022,9 10 -
19.04.2019 09:00:00 - - - - - - - -
19.04.2019 08:00:00 - - - - - - - -
19.04.2019 07:00:00 16,4 14,6 28 15 E 1021,0 8 -
19.04.2019 06:00:00 - - - - - - - -
19.04.2019 05:00:00 - - - - - - - -
19.04.2019 04:00:00 16,3 14,5 28 15 E 1019,9 - -
19.04.2019 03:00:00 - - - - - - - -
19.04.2019 02:00:00 - - - - - - - -
19.04.2019 01:00:00 16,4 14,6 26 14 E 1020,6 - -
19.04.2019 00:00:00 - - - - - - - -
18.04.2019 23:00:00 - - - - - - - -
18.04.2019 22:00:00 16,4 14,4 29 16 E 1020,5 - -
18.04.2019 21:00:00 - - - - - - - -
18.04.2019 20:00:00 - - - - - - - -
18.04.2019 19:00:00 16,7 14,5 28 15 E 1018,7 10 -
18.04.2019 18:00:00 - - - - - - - -
18.04.2019 17:00:00 - - - - - - - -
18.04.2019 16:00:00 18,6 14,5 29 16 ESE 1017,9 10 -
18.04.2019 15:00:00 - - - - - - - -
18.04.2019 14:00:00 - - - - - - - -
18.04.2019 13:00:00 19,3 14,8 24 13 ESE 1019,8 10 -
18.04.2019 12:00:00 - - - - - - - -
18.04.2019 11:00:00 - - - - - - - -
18.04.2019 10:00:00 19,0 14,3 22 12 ESE 1020,5 10 0,0
18.04.2019 09:00:00 - - - - - - - -
18.04.2019 08:00:00 - - - - - - - -
18.04.2019 07:00:00 15,8 13,6 15 8 ESE 1019,9 8 -
18.04.2019 06:00:00 - - - - - - - -
18.04.2019 05:00:00 - - - - - - - -
18.04.2019 04:00:00 15,7 13,9 - - - 1019,1 - -
18.04.2019 03:00:00 - - - - - - - -
18.04.2019 02:00:00 - - - - - - - -
18.04.2019 01:00:00 15,9 14,1 - - - 1020,5 - -
18.04.2019 00:00:00 - - - - - - - -
17.04.2019 23:00:00 - - - - - - - -
17.04.2019 22:00:00 16,3 14,1 - - - 1020,9 - -
17.04.2019 21:00:00 - - - - - - - -
17.04.2019 20:00:00 - - - - - - - -
17.04.2019 19:00:00 16,8 13,7 8 4 E 1019,3 10 -
17.04.2019 18:00:00 - - - - - - - -
17.04.2019 17:00:00 - - - - - - - -
17.04.2019 16:00:00 18,0 13,7 15 8 E 1019,1 10 -
17.04.2019 15:00:00 - - - - - - - -
17.04.2019 14:00:00 - - - - - - - -
17.04.2019 13:00:00 17,6 14,3 11 6 ENE 1020,6 10 -
17.04.2019 12:00:00 - - - - - - - -
17.04.2019 11:00:00 - - - - - - - -
17.04.2019 10:00:00 16,6 14,2 13 7 ENE 1020,6 6 -
17.04.2019 09:00:00 - - - - - - - -
17.04.2019 08:00:00 - - - - - - - -
17.04.2019 07:00:00 15,8 14,2 9 5 NNE 1019,6 6 -
17.04.2019 06:00:00 - - - - - - - -
17.04.2019 05:00:00 - - - - - - - -
17.04.2019 04:00:00 15,2 13,4 0 0 N 1019,0 - -
17.04.2019 03:00:00 - - - - - - - -
17.04.2019 02:00:00 - - - - - - - -
17.04.2019 01:00:00 15,8 14,0 16 9 SE 1019,6 - -
17.04.2019 00:00:00 - - - - - - - -
16.04.2019 23:00:00 - - - - - - - -
16.04.2019 22:00:00 15,9 13,9 22 12 ESE 1019,9 - -
16.04.2019 21:00:00 - - - - - - - -
16.04.2019 20:00:00 - - - - - - - -
16.04.2019 19:00:00 16,3 13,6 22 12 ESE 1019,1 10 -
16.04.2019 18:00:00 - - - - - - - -
16.04.2019 17:00:00 - - - - - - - -
16.04.2019 16:00:00 17,8 13,5 28 15 ESE 1018,4 10 -
16.04.2019 15:00:00 - - - - - - - -
16.04.2019 14:00:00 - - - - - - - -
16.04.2019 13:00:00 18,5 13,1 28 15 ESE 1019,2 10 -
16.04.2019 12:00:00 - - - - - - - -
16.04.2019 11:00:00 - - - - - - - -
16.04.2019 10:00:00 17,1 12,2 11 6 SE 1020,1 10 -
16.04.2019 09:00:00 - - - - - - - -
16.04.2019 08:00:00 - - - - - - - -
16.04.2019 07:00:00 12,8 10,0 5 3 WSW 1020,5 10 -
16.04.2019 06:00:00 - - - - - - - -
16.04.2019 05:00:00 - - - - - - - -
16.04.2019 04:00:00 12,4 9,8 5 3 WSW 1020,1 - -
16.04.2019 03:00:00 - - - - - - - -
16.04.2019 02:00:00 - - - - - - - -
16.04.2019 01:00:00 14,6 10,6 5 3 N 1020,5 - -
16.04.2019 00:00:00 - - - - - - - -
15.04.2019 23:00:00 - - - - - - - -
15.04.2019 22:00:00 14,9 10,3 18 10 N 1020,1 - -
15.04.2019 21:00:00 - - - - - - - -
15.04.2019 20:00:00 - - - - - - - -
15.04.2019 19:00:00 15,7 10,2 28 15 N 1017,9 10 -
15.04.2019 18:00:00 - - - - - - - -
15.04.2019 17:00:00 - - - - - - - -
15.04.2019 16:00:00 17,6 10,0 18 10 N 1017,0 10 -
15.04.2019 15:00:00 - - - - - - - -
15.04.2019 14:00:00 - - - - - - - -
15.04.2019 13:00:00 18,7 8,1 18 10 NNW 1017,3 10 -
15.04.2019 12:00:00 - - - - - - - -
15.04.2019 11:00:00 - - - - - - - -
15.04.2019 10:00:00 17,8 2,5 18 10 WNW 1016,8 10 -
15.04.2019 09:00:00 - - - - - - - -
15.04.2019 08:00:00 - - - - - - - -
15.04.2019 07:00:00 15,2 7,7 15 8 W 1015,0 10 -
15.04.2019 06:00:00 - - - - - - - -
15.04.2019 05:00:00 - - - - - - - -
15.04.2019 04:00:00 16,2 5,8 13 7 WSW 1014,4 - -
15.04.2019 03:00:00 - - - - - - - -
15.04.2019 02:00:00 - - - - - - - -
15.04.2019 01:00:00 16,9 9,8 24 13 SSW 1014,7 - -
15.04.2019 00:00:00 - - - - - - - -
14.04.2019 23:00:00 - - - - - - - -
14.04.2019 22:00:00 16,7 12,7 13 7 S 1016,2 - -
14.04.2019 21:00:00 - - - - - - - -

tt = Température de l'air
td = dewpoint
ff = Vitesse du vent
dd = Direction du vent
ppp = reduced air pressure
vv = visibility
rr = Quantités de précipitations

stations d'obs. à proximité